Starlink 30347

operational
NORAD ID: 57699 Int'l Des: 2023-129 Owner: SPXS Country: US Constellation: starlink
LEOCIRCULAR

Starlink 30347について

説明を読み込み中...

リアルタイム位置

3D地球を読み込み中...

次回通過

高度履歴

Altitude vs Time

uPlot chart will show altitude changes over time

軌道要素

1 57699U 23129B 26037.07223002 .00001972 00000-0 16100-3 0 9997
2 57699 43.0035 279.7088 0001000 273.2374 86.8354 15.02540940136041
Epoch: Feb 6, 2026 • Age: 13 hours

現在のステータス

高度 561.4 km
速度 7.58 km/s
衛星直下点 -14.07°S, 91.47°W
打ち上げ日 Aug 27, 2023
運用期間 2.4 years
タイプ internet

技術仕様

分類 Payload
質量 730.00 kg
乾燥質量 700.00 kg
総質量 730.00 kg
長さ 0.30 m
直径 4.10 m
スパン 29.00 m
形状 Box + pan
製造者 SPXS
バスタイプ Starlink V2M
フェーズステータス In Orbit
所有者/国 SPXS/US

大規模コンステレーション

Loading constellations...